Tracking 31027 objects as of 19-Jul-2025
HD Live streaming from Space Station
objects crossing your sky now

COSMOS 1275 DEB

Track COSMOS 1275 DEB now!
10-day predictions


NORAD ID: 42187
Int'l Code: 1981-053TB
Perigee: 848.0 km
Apogee: 930.0 km
Inclination: 83.0 °
Period: 102.6 minutes
Semi major axis: 7259 km
RCS: Unknown
Launch date: June 4, 1981
Source: Commonwealth of Independent States (former USSR) (CIS)
Launch site: PLESETSK MISSILE AND SPACE COMPLEX (PKMTR)

Note: This is SATELLITE DEBRIS
Your satellite tracking list
HAWK-4A
Track 1 satellite(s)




NASA's NSSDC Master Catalog

Two Line Element Set (TLE):
1 42187U 81053TB  25194.96487944  .00001541  00000-0  96159-3 0  9995
2 42187  82.9661  63.2621 0056482 274.4099  85.0621 14.03456325592502
Source of the keplerian elements: AFSPC